map of PGU home
PGU - Airport
Location
City:  Asalouyeh, Bushehr, Iran
Near (Alt.):Khalije Fars
Name:Persian Gulf Airport
ICAO:OIBP
IATA:PGU

Details
Type:Airport (Aerodrome, Airfield)
Use:Public/Civil
Latitude:2722'47"N (27.379589)
Longitude:5244'16"E (52.737667)
Datum:WGS 1984
Elevation:27 ft (8 m)
Variation:2.67E (WMM2015 magnetic declination)
0.05 annual change
Runways:1
Longest:13115 × 148 ft (3997 × 45 m), paved

Time
Time Zone:UTC+3:30 (DST+4:30)
Local Time:

Weather
METAR:OIBP 090900Z 29012KT 9999 FEW040 24/10 Q1013 A2992

Related Locations
Nearby:
Farthest:GMR: 11881 mi / 19120 km
Mangareva [Totegegie], Gambier Islands, PF

Find:

   beyond  
but within

Other Information
Maps:
NOTAMs:
Links:
Sources:

  
flag of Iran   

Sectional Chart

Flight Planning
at skyvector.com

Satellite Image

Google Maps Satellite view

 

Copyright © 2004-2016 Karl L. Swartz. All rights reserved.
The Great Circle Mapper name and logo are trademarks of the Great Circle Mapper.
All other trademarks mentioned herein belong to their respective owners.
Please see credits for attibutions and further copyright information.

  Follow gcmap on Facebook Follow gcmap on Twitter Follow gcmap on Google+ GCmap on LinkedIn

hCard Microformat

Geo Microformat